Skip Page Navigation
NASA JPL Caltech
NASA Logo - Jet Propulsion Laboratory + View the NASA Portal
+ Near-Earth Object (NEO) Program
Search JPL
JPL Home Earth Solar System Stars & Galaxies Technology
JPL Solar System Dynamics
BODIES ORBITS EPHEMERIDES TOOLS PHYSICAL DATA DISCOVERY FAQ SITE MAP
JPL Small-Body Database Browser
Search: [ help ]  
20855 Arifawan (2000 VV27)
Classification: Main-belt Asteroid          SPK-ID: 2020855
Ephemeris | Orbit Diagram | Orbital Elements | Physical Parameters | Discovery Circumstances ]

[ hide orbit diagram ]
Orbit Diagram
Note: Make sure you have Java enabled on your browser to see the applet. This applet is provided as a 3D orbit visualization tool. The applet was implemented using 2-body methods, and hence should not be used for determining accurate long-term trajectories (over several years or decades) or planetary encounter circumstances. For accurate long-term ephemerides, please instead use our Horizons system.
Orbit Viewer

Additional Notes: the orbits shown in the applet are color coded. The planets are white lines, and the asteroid/comet is a blue line. The bright white line indicates the portion of the orbit that is above the ecliptic plane, and the darker portion is below the ecliptic plane. Likewise for the asteroid/comet orbit, the light blue indicates the portion above the ecliptic plane, and the dark blue the portion below the ecliptic plane.

Orbit Viewer applet originally written and kindly provided by Osamu Ajiki (AstroArts), and further modified by Ron Baalke (JPL).


Orbital Elements at Epoch 2456400.5 (2013-Apr-18.0) TDB
Reference: MPO234944 (heliocentric ecliptic J2000)
 Element Value Uncertainty (1-sigma)   Units 
e 0.1682291 n/a  
a 2.2768931 n/a AU
q 1.8938534 n/a AU
i 3.47423 n/a deg
node 129.63640 n/a deg
peri 267.55359 n/a deg
M 237.70237 n/a deg
tp 2456826.8123625
(2014-Jun-18.31236250)
n/a JED
period 1254.9094410
3.44
n/a
n/a
d
yr
n 0.28687329 n/a deg/d
Q 2.6599328 n/a AU
  Orbit Determination Parameters
   # obs. used (total)      670  
   first obs. used      1993-??-??  
   last obs. used      2012-06-05  
   # oppositions      13  
   planetary ephem.      DE403  
   condition code      0  
   fit RMS      0.57  
   data source      MPC:mpn  
   producer      MPCLINUX  

Additional Information
 T_jup = 3.587 

Ephemeris | Orbit Diagram | Orbital Elements | Physical Parameters | Discovery Circumstances ]

Physical Parameter Table
Parameter Symbol Value Units Sigma Reference Notes
absolute magnitude H 15.2 mag n/a PDS3 (MPO 7963)  

20855 Arifawan           Discovered 2000 Nov. 1 by the Lincoln Laboratory Near-Earth Asteroid Research Team at Socorro.
Arif Awan (b. 1987) was awarded second place in the 2004 Intel International Science and Engineering Fair for his medicine and health team project. He attends the Wagar High School, Cote St. Luc, Quebec, Canada.
NOTE: some special characters may not display properly (any characters within {} are an attempt to place the proper accent above a character)
Reference: 20041226/MPCPages.arcLast Updated: 2004-12-25

Alternate Designations
 2000 VV27 = 1993 TY45 = 1993 VF5 = 1995 GA6 = 1996 PP4 
Ephemeris | Orbit Diagram | Orbital Elements | Physical Parameters | Discovery Circumstances ]
ABOUT SSD CREDITS/AWARDS PRIVACY/COPYRIGHT GLOSSARY LINKS
FirstGov 2013-May-20 08:30 UT
(server date/time)  
NASA Home Page
Site Manager:   Donald K. Yeomans
Webmaster  Alan B. Chamberlin